Other Public Products
Issued by NWS Grand Forks, ND

Home | Current Version | Previous Version | Text Only | Print | Product List | Glossary Off
Versions: 1 2 3 4 5 6 7 8 9 10 11 12 13 14 15 16 17 18 19 20 21 22 23 24 25 26 27 28 29 30 31 32 33 34 35 36 37 38 39 40 41 42 43 44 45 46 47 48 49 50

770
FPUS83 KFGF 250210
OPUFGF
PRAIRIE TO PINES WEATHER ROUNDUP
NATIONAL WEATHER SERVICE EASTERN NORTH DAKOTA/GRAND FORKS ND
900 PM CDT TUE APR 24 2018

 **SATELLITE DATA USED TO AUGMENT SKY COVER AT AUTOMATED STATIONS**
 *****  WEATHER ACROSS EASTERN NORTH DAKOTA  *****

CITY           SKY/WX    TMP DP  RH WIND       PRES   REMARKS
GRAND FORKS    FAIR      41  32  70 N3        30.33S
GRND FORKS AFB FAIR      40  26  57 N3        30.33S
GRND FORKS NWS   N/A     45  28  51 VRB2      30.31R
BUXTON           N/A     46  33  60 N5          N/A
DEVILS LAKE    FAIR      48  28  46 SE3       30.32F
FARGO          FAIR      42  30  62 N8        30.33S
WAHPETON ARPT  FAIR      45  28  53 N14       30.32S
$$

 *****  WEATHER ACROSS CENTRAL AND WESTERN NORTH DAKOTA  *****

CITY           SKY/WX    TMP DP  RH WIND       PRES   REMARKS
JAMESTOWN      FAIR      44  31  60 N5        30.33S
BISMARCK       FAIR      52  23  32 W6        30.35S
MINOT          FAIR      55  17  22 SW5       30.28F
MINOT AFB      FAIR      50  25  38 SW9       30.27F
GARRISON         N/A     44  27  51 W5        30.32F
WILLISTON      FAIR      58  23  26 SW3       30.28F
DICKINSON      FAIR      46  31  55 SW12      30.33F
HETTINGER      FAIR      42  27  55 W3        30.38F
$$

 *****  OTHER OBSERVATIONS NORTHEAST NORTH DAKOTA  *****

CITY           SKY/WX    TMP DP  RH WIND       PRES   REMARKS
WALHALLA       FAIR      46  23  39 SE5       30.31F
LANGDON        FAIR      41  32  70 SE9       30.30F
CAVALIER         N/A     45  27  49 CALM      30.31F
GRAFTON        FAIR      45  27  49 NW5       30.34F
CANDO          FAIR      45  28  53 SE6       30.32S
FORT TOTTEN      N/A     47  24  40 CALM      29.95S
ROLLA          FAIR      48  28  46 S6        30.28F
RUGBY          FAIR      50  25  37 S6        30.29F
 ***** THE ABOVE OBSERVATIONS ARE NON NWS ARE NOT QUALITY
        CONTROLLED AND MAY MIS-REPORT RAIN FOR SNOW...
$$

 *****  OTHER OBSERVATIONS SOUTHEAST NORTH DAKOTA *****

CITY           SKY/WX    TMP DP  RH WIND       PRES   REMARKS
COOPERSTOWN    FAIR      45  34  65 N5        30.34S
VALLEY CITY    FAIR      43  30  61 CALM      30.36R
OAKES            N/A     43  32  65 N7        30.34S
GWINNER          N/A     45  32  61 N9        30.34R
SHEYENNE NWR     N/A     46  29  52 N2        29.95S
BUFFALO          N/A     46  25  45 SW6         N/A
WYNDMERE       NOT AVBL
 ***** THE ABOVE OBSERVATIONS ARE NON NWS ARE NOT QUALITY
       CONTROLLED AND MAY MIS-REPORT RAIN FOR SNOW...
$$

  *****  WEATHER ACROSS NORTHERN MINNESOTA  *****

CITY           SKY/WX    TMP DP  RH WIND       PRES   REMARKS
FLAG ISLAND    FAIR      39  19  45 SE3       30.30S
WARROAD        FAIR      37  28  70 CALM      30.32S
ROSEAU         FAIR      41  30  65 SE6       30.31S
HALLOCK        FAIR      45  18  33 CALM      30.32S
THF RVR FALLS  FAIR      44  25  47 N7        30.33S
HALSTAD        NOT AVBL
FOSSTON        FAIR      36  25  64 N7        30.33R
BAUDETTE       FAIR      38  23  55 CALM      30.31S
WASKISH        FAIR      36  25  64 NW3       30.32R
CROOKSTON      FAIR      43  30  61 N3        30.34S
$$
  *****  WEATHER ACROSS CENTRAL AND WEST MINNESOTA  *****

CITY           SKY/WX    TMP DP  RH WIND       PRES   REMARKS
BEMIDJI        FAIR      37  21  53 N5        30.31R
PARK RAPIDS    FAIR      44  23  43 N8        30.28R
WADENA         FAIR      43  28  56 NW8       30.27R
DETROIT LAKES  FAIR      43  30  61 N6        30.32R
MOORHEAD       FAIR      43  30  61 N7        30.34S
FERGUS FALLS   FAIR      43  30  61 N8        30.29R
ELBOW LAKE     FAIR      42  31  64 N9        30.29R
MORRIS MN      FAIR      45  36  70 NW10      30.28R
STAPLES        FAIR      43  25  49 N8        30.26R
WHEATON        FAIR      45  32  61 NW7       30.33R
$$
  *****  WEATHER ELSEWHERE ACROSS MINNESOTA  *****

CITY           SKY/WX    TMP DP  RH WIND       PRES   REMARKS
DULUTH         FAIR      41  25  53 N12       30.22R
INTRNTL FALLS  FAIR      36  21  54 CALM      30.29S
ELY            FAIR      36  19  51 CALM      30.26R
CLOQUET        FAIR      43  21  42 N12G18    30.23R
BRAINERD       FAIR      45  25  45 N10       30.26R
HIBBING        FAIR      37  21  52 N7        30.26R
ALEXANDRIA     FAIR      47  28  47 NW12      30.27R
SAINT CLOUD    FAIR      47  30  51 N5        30.22R
MINNEAPOLIS    FAIR      51  31  46 N9        30.20R
$$

  *****  WEATHER ACROSS SOUTH DAKOTA  *****

CITY           SKY/WX    TMP DP  RH WIND       PRES   REMARKS
SIOUX FALLS    CLOUDY    46  38  73 N9        30.27S
BROOKINGS      FAIR      42  35  76 N8        30.29R
WATERTOWN      FAIR      41  32  70 N13       30.30R
HURON          FAIR      44  34  67 N8        30.33R
SISSETON         N/A     43  34  70 N12       30.32R
ABERDEEN       FAIR      46  31  55 N9        30.35R
MITCHELL       CLOUDY    44  40  85 NW10      30.33S
PIERRE         FAIR      44  31  60 N9        30.34S
MOBRIDGE       FAIR      43  30  60 NE7       30.33F
RAPID CITY     FAIR      38  25  59 N6        30.40S
$$

  *****  SOME WEATHER IN NEARBY STATES *****

CITY           SKY/WX    TMP DP  RH WIND       PRES   REMARKS
GLASGOW MT     FAIR      59  28  30 S12       30.24F
GREAT FALLS MT FAIR      57  16  20 S16       30.19F
CHEYENNE WY    CLOUDY    35  25  66 N10       30.39R
SCOTTSBLUFF NE CLOUDY    40  32  73 N8        30.41S
OMAHA NE       LGT RAIN  53  51  93 N10       30.19R
DES MOINES IA  MOCLDY    62  47  57 N16       30.11R
DAVENPORT IA   FAIR      58  31  35 N7        30.02R
CHICAGO IL     FAIR      53  46  77 NE8       30.00R
EAU CLAIRE WI  FAIR      48  36  63 NE3       30.18R
LA CROSSE WI   FAIR      58  33  39 N18G29    30.11R
$$

  *****  SOME NATIONAL WEATHER *****

CITY           SKY/WX    TMP DP  RH WIND       PRES   REMARKS
LA GUARDIA NY  CLOUDY    56  45  66 E9        30.21F
RALEIGH NC     CLOUDY    63  62  97 SE7       29.83S
ATLANTA GA     MOCLDY    62  55  77 W12       29.90R
NEW ORLEANS LA FAIR      72  61  68 N5        30.01R
OKLAHOMA CITY  MOCLDY    67  50  54 N24G31    30.09R
ALBUQUERQUE NM MOCLDY    69  36  29 E26G36    30.04R
SALT LAKE CITY FAIR      62  35  36 NW13      30.23R
LOS ANGELES CA FAIR      57  51  80 W8        30.00R
BOISE ID       FAIR      67  29  24 SE6       30.18F
SEATTLE WA     PTSUNNY   71  42  35 N10       30.04F
$$

*** WEATHER ACROSS MANITOBA...SASKATCHEWAN AND ONTARIO ***
                ***ONTARIO***

CITY           SKY/WX    TMP DP  RH WIND       PRES   REMARKS
GERALDTON      CLOUDY    34  23  64 N8        30.22R
THUNDER BAY    MOCLDY    39  27  60 N9        30.25R
SIOUX LOOKOUT  PTCLDY    28  21  74 CALM      30.27S
TORONTO        LGT RAIN  50  48  93 NE3       30.07S FOG
BIG TROUT LK   CLEAR     30  18  59 S7        30.20F WCI  23
PICKLE LAKE    PTCLDY    34  19  55 CALM      30.25S
DRYDEN         CLEAR     37  19  48 N3        30.28S
KENORA         CLEAR     41  19  42 N2        30.29S
$$
                *** MANITOBA***

CITY           SKY/WX    TMP DP  RH WIND       PRES   REMARKS
BRANDON        PTCLDY    50  32  50 SW9       30.22F
DAUPHIN        CLEAR     50  32  50 S7        30.15F
ISLAND LAKE    MOCLDY    41  23  48 S6        30.12F
PILOT MOUND      N/A     43  25  49 S6          N/A
THE PAS        MOCLDY    54  32  43 S10       29.94F
THOMPSON       CLOUDY    39  25  56 S9G21     29.89F
WINNIPEG       PTCLDY    45  25  45 SE8       30.28F
LYNN LAKE      CLOUDY    48  30  49 SW8       29.72F
CHURCHILL      CLOUDY    36  28  75 S12       29.88F
GILLAM         CLOUDY    39  25  56 S10       29.95F
$$
                ***SASKATCHEWAN***

CITY           SKY/WX    TMP DP  RH WIND       PRES   REMARKS
ESTEVAN        CLOUDY    52  28  40 S9        30.23F
KINDERSLEY     CLOUDY    59  25  27 S9        30.00F
LLOYDMINSTER   CLOUDY    59  28  31 NW7       29.95F
PRINCE ALBERT  MOCLDY    59  30  33 SW13      29.96F
REGINA         MOCLDY    54  27  35 SW10      30.15F
YORKTON        CLEAR     54  30  40 S7        30.12F



USA.gov is the U.S. government's official web portal to all federal, state and local government web resources and services.